Location: Brantley
(31.5822°N, 86.2569°W)
Time: 16:20:40
(UTC+00:00)

Injun/Solrad 3 - Pass Details

Date: 25 February 2026
Orbit: 871 x 985 km, 66.8° (Epoch: 11 March)

Event Time Altitude Azimuth Distance (km) Brightness Sun altitude
Rises 00:34:27 0° 337° (NNW) 3,602 11.2 -12.5°
Reaches altitude 10° 00:36:59 10° 340° (NNW) 2,671 10.5 -13.0°
Maximum altitude 00:43:13 69° 64° (ENE) 1,031 7.9 -14.3°
Drops below altitude 10° 00:49:33 10° 147° (SSE) 2,719 10.0 -15.7°
Sets 00:52:09 0° 149° (SSE) 3,670 10.7 -16.2°
